Miscellaneous Local Product
Issued by NWS Hastings, NE

Home | Current Version | Previous Version | Text Only | Print | Product List | Glossary Off
Versions: 1 2 3 4 5 6 7 8 9 10 11 12 13 14 15 16 17 18 19 20 21 22 23 24 25 26 27 28 29 30 31 32 33 34 35 36 37 38 39 40 41 42 43 44 45 46 47 48 49 50

000
AXUS43 KGID 031002
MISGRI

GID CWA HOURLY WEATHER ROUNDUP
NATIONAL WEATHER SERVICE HASTINGS NE
500 AM CDT WED JUN 03 2015

NOTE: "FAIR" INDICATES FEW OR NO CLOUDS BELOW 12,000 FEET WITH NO
SIGNIFICANT WEATHER AND/OR OBSTRUCTIONS TO VISIBILITY.

...SOUTH CENTRAL NEBRASKA...

CITY           SKY/WX    TMP DP  RH WIND       PRES   REMARKS
GRAND ISLAND   TSTM      61  59  93 E10       29.88R
HASTINGS       CLOUDY    62  58  86 E13       29.87R
KEARNEY        CLOUDY    63  55  77 NW18G30   29.97R THUNDER
ORD            LGT RAIN  61  58  90 SW15      29.87F
YORK           LGT RAIN  63  61  94 SE7       29.89R
AURORA         CLOUDY    62  61  97 SE10      29.87F
LEXINGTON      RAIN      61  58  88 NE17G24   29.93R
HOLDREGE       CLOUDY    61  57  86 NE10G18   29.91R
HEBRON         CLOUDY    62  58  86 NE12      29.90S

...NEBRASKA PANHANDLE...

CITY           SKY/WX    TMP DP  RH WIND       PRES   REMARKS
CHADRON        PTCLDY    50  49  96 SW6       29.95R
ALLIANCE       MOCLDY    56  54  93 NE8       29.94R
SCOTTSBLUFF    CLEAR     57  52  83 NE6       29.96R
SIDNEY         MOCLDY    59  54  83 NE14      29.93R

...WESTERN AND NORTH CENTRAL NEBRASKA...

CITY           SKY/WX    TMP DP  RH WIND       PRES   REMARKS
VALENTINE      CLOUDY    59  54  83 SW9       29.88R
AINSWORTH      CLOUDY    61  58  90 SW6       29.90R
ONEILL         CLOUDY    61  60  97 W6        29.85S
BROKEN BOW     LGT RAIN  61  58  90 S20       29.95R
IMPERIAL       CLEAR     62  55  77 E20G30    29.84R
NORTH PLATTE   CLOUDY    61  55  81 E17G29    29.84F
MCCOOK         MOCLDY    65  58  78 NE26G35   29.86R

...EASTERN NEBRASKA...

CITY           SKY/WX    TMP DP  RH WIND       PRES   REMARKS
NORFOLK        CLOUDY    63  59  87 SE7       29.72F
SO SIOUX CITY  RAIN      64  60  87 SW8       29.85F
TEKAMAH        LGT RAIN  66  62  87 W3        29.87F
COLUMBUS       CLOUDY    63  55  77 E9        29.84R
ALBION         CLOUDY    62  58  89 W16G24    29.87R
OMAHA EPPLEY   TSTM      67  62  84 S5G20     29.89F
OFFUTT AFB     TSTM      68  61  77 VRB2      29.92R
MILLARD        TSTM      66  63  89 CALM      29.89S
LINCOLN        LGT RAIN  63  61  93 SE6       29.87F
NEBRASKA CITY  LGT RAIN  65  60  81 NW13G36   29.94R
BEATRICE       TSTM      63  60  91 NE7G18    29.92R
FALLS CITY     PTCLDY    65  60  84 SE9       29.86F

...NORTHERN KANSAS...

CITY           SKY/WX    TMP DP  RH WIND       PRES   REMARKS
GOODLAND       CLEAR     62  59  90 CALM      29.76S
HILL CITY      CLEAR     69  62  78 S3        29.76F
NORTON         SUNNY     68  61  77 NE10      29.82R
PHILLIPSBURG   CLEAR     70  70 100 NE8       29.82R
SMITH CENTER   PTCLDY    66  64  94 NE13      29.84R
BELOIT           N/A     68  66  94 E7        29.80R
HAYS           CLEAR     70  61  73 S12G20    29.78S
RUSSELL        PTCLDY    70  65  84 S16       29.76F
CONCORDIA      MOCLDY    70  66  87 NE5       29.85R
SALINA         PTCLDY    72  65  78 S14       29.80F
TOPEKA         CLEAR     67  64  90 SE7       29.88F



USA.gov is the U.S. government's official web portal to all federal, state and local government web resources and services.